When you browse on this site, cookies collect data to enhance your experience and personalize the content and advertising you see.
Visit our Privacy Policy to learn more. By continuing to use the site, you agree to this use of cookies and data.
  • In Hungary
  • List of Countries
  • For 7 days
  • Water Temperature
  • Weather Map
  • News
  • Weather Widgets
  • user-avatar
    Login

    Hourly Weather Salamina

    Today, 22 August, Thursday

    Time Temperature Precipitation Wind Pressure Humidity
    00:00 +27°C° 0 mm 3 mps 757 mmHg 46%
    01:00 +26°C° 0 mm 3 mps 757 mmHg 46%
    02:00 +26°C° 0 mm 3 mps 757 mmHg 46%
    03:00 +26°C° 0 mm 3 mps 757 mmHg 47%
    04:00 +26°C° 0 mm 3 mps 757 mmHg 47%
    05:00 +26°C° 0 mm 4 mps 756 mmHg 48%
    06:00 +27°C° 0 mm 4 mps 757 mmHg 47%
    07:00 +29°C° 0 mm 4 mps 757 mmHg 45%
    08:00 +30°C° 0 mm 5 mps 757 mmHg 44%
    09:00 +32°C° 0 mm 6 mps 757 mmHg 42%
    10:00 +34°C° 0 mm 6 mps 757 mmHg 40%
    11:00 +35°C° 0 mm 7 mps 757 mmHg 38%
    12:00 +35°C° 0 mm 7 mps 757 mmHg 37%
    13:00 +36°C° 0 mm 7 mps 757 mmHg 36%
    14:00 +36°C° 0 mm 7 mps 757 mmHg 34%
    15:00 +36°C° 0 mm 7 mps 757 mmHg 34%
    16:00 +35°C° 0 mm 7 mps 756 mmHg 34%
    17:00 +35°C° 0 mm 7 mps 756 mmHg 34%
    18:00 +34°C° 0 mm 6 mps 756 mmHg 37%
    19:00 +32°C° 0 mm 5 mps 756 mmHg 40%
    20:00 +30°C° 0 mm 3 mps 756 mmHg 44%
    21:00 +30°C° 0 mm 4 mps 756 mmHg 44%
    22:00 +29°C° 0 mm 4 mps 756 mmHg 45%
    23:00 +29°C° 0 mm 4 mps 757 mmHg 45%

    Tomorrow, 23 August, Friday

    Time Temperature Precipitation Wind Pressure Humidity
    00:00 +28°C° 0 mm 4 mps 756 mmHg 46%
    01:00 +28°C° 0 mm 4 mps 756 mmHg 47%
    02:00 +28°C° 0 mm 4 mps 756 mmHg 48%
    03:00 +27°C° 0 mm 5 mps 756 mmHg 52%
    04:00 +27°C° 0 mm 5 mps 756 mmHg 55%
    05:00 +26°C° 0 mm 5 mps 756 mmHg 58%
    06:00 +28°C° 0 mm 6 mps 756 mmHg 54%
    07:00 +29°C° 0 mm 6 mps 756 mmHg 49%
    08:00 +30°C° 0 mm 7 mps 757 mmHg 45%
    09:00 +32°C° 0 mm 7 mps 757 mmHg 42%
    10:00 +33°C° 0 mm 8 mps 757 mmHg 38%
    11:00 +35°C° 0 mm 9 mps 757 mmHg 34%
    12:00 +35°C° 0 mm 9 mps 757 mmHg 33%
    13:00 +35°C° 0 mm 9 mps 756 mmHg 32%
    14:00 +37°C° 0 mm 9 mps 756 mmHg 32%
    15:00 +35°C° 0 mm 9 mps 756 mmHg 32%
    16:00 +35°C° 0 mm 9 mps 756 mmHg 33%
    17:00 +35°C° 0 mm 8 mps 755 mmHg 33%
    18:00 +33°C° 0 mm 7 mps 755 mmHg 36%
    19:00 +32°C° 0 mm 6 mps 756 mmHg 40%
    20:00 +30°C° 0 mm 4 mps 756 mmHg 43%
    21:00 +29°C° 0 mm 4 mps 756 mmHg 43%
    22:00 +29°C° 0 mm 4 mps 755 mmHg 44%
    23:00 +29°C° 0 mm 4 mps 755 mmHg 44%

    Day after tomorrow, 24 August, Saturday

    Time Temperature Precipitation Wind Pressure Humidity
    00:00 +28°C° 0 mm 5 mps 755 mmHg 45%
    01:00 +28°C° 0 mm 5 mps 755 mmHg 46%
    02:00 +28°C° 0 mm 5 mps 755 mmHg 46%
    03:00 +28°C° 0 mm 5 mps 755 mmHg 51%
    04:00 +27°C° 0 mm 5 mps 755 mmHg 55%
    05:00 +27°C° 0 mm 6 mps 755 mmHg 59%
    06:00 +28°C° 0 mm 6 mps 755 mmHg 58%
    07:00 +28°C° 0 mm 6 mps 755 mmHg 57%
    08:00 +29°C° 0 mm 7 mps 755 mmHg 56%
    09:00 +30°C° 0 mm 7 mps 755 mmHg 52%
    10:00 +33°C° 0 mm 8 mps 756 mmHg 48%
    11:00 +34°C° 0 mm 8 mps 756 mmHg 44%
    12:00 +34°C° 0 mm 8 mps 756 mmHg 43%
    13:00 +35°C° 0 mm 7 mps 755 mmHg 42%
    14:00 +35°C° 0 mm 7 mps 755 mmHg 40%
    15:00 +35°C° 0 mm 7 mps 755 mmHg 40%
    16:00 +35°C° 0 mm 7 mps 755 mmHg 40%
    17:00 +35°C° 0 mm 7 mps 754 mmHg 40%
    18:00 +34°C° 0 mm 6 mps 755 mmHg 44%
    19:00 +32°C° 0 mm 5 mps 755 mmHg 47%
    20:00 +30°C° 0 mm 4 mps 755 mmHg 51%
    21:00 +29°C° 0 mm 4 mps 755 mmHg 53%
    22:00 +29°C° 0 mm 4 mps 755 mmHg 54%
    23:00 +28°C° 0 mm 4 mps 755 mmHg 56%

    25 August, Sunday

    Time Temperature Precipitation Wind Pressure Humidity
    00:00 +28°C° 0 mm 4 mps 755 mmHg 58%
    01:00 +27°C° 0 mm 5 mps 755 mmHg 60%
    02:00 +27°C° 0 mm 5 mps 754 mmHg 62%
    03:00 +27°C° 0 mm 5 mps 754 mmHg 65%
    04:00 +26°C° 0 mm 5 mps 754 mmHg 68%
    05:00 +26°C° 0 mm 5 mps 754 mmHg 71%
    06:00 +27°C° 0 mm 5 mps 754 mmHg 67%
    07:00 +28°C° 0 mm 5 mps 755 mmHg 63%
    08:00 +29°C° 0 mm 6 mps 755 mmHg 58%
    09:00 +30°C° 0 mm 6 mps 755 mmHg 52%
    10:00 +33°C° 0 mm 7 mps 755 mmHg 45%
    11:00 +34°C° 0 mm 8 mps 755 mmHg 38%
    12:00 +35°C° 0 mm 8 mps 755 mmHg 37%
    13:00 +35°C° 0 mm 8 mps 755 mmHg 36%
    14:00 +35°C° 0 mm 8 mps 755 mmHg 35%
    15:00 +35°C° 0 mm 8 mps 755 mmHg 36%
    16:00 +35°C° 0 mm 7 mps 754 mmHg 37%
    17:00 +34°C° 0 mm 7 mps 754 mmHg 37%
    18:00 +33°C° 0 mm 6 mps 754 mmHg 41%
    19:00 +30°C° 0 mm 4 mps 754 mmHg 44%
    20:00 +29°C° 0 mm 3 mps 754 mmHg 47%
    21:00 +29°C° 0 mm 3 mps 754 mmHg 47%
    22:00 +28°C° 0 mm 3 mps 755 mmHg 47%
    23:00 +28°C° 0 mm 4 mps 755 mmHg 46%

    26 August, Monday

    Time Temperature Precipitation Wind Pressure Humidity
    00:00 +28°C° 0 mm 4 mps 755 mmHg 46%
    01:00 +28°C° 0 mm 4 mps 755 mmHg 46%
    02:00 +28°C° 0 mm 4 mps 754 mmHg 46%
    03:00 +27°C° 0 mm 4 mps 754 mmHg 47%
    04:00 +27°C° 0 mm 4 mps 754 mmHg 49%
    05:00 +27°C° 0 mm 4 mps 754 mmHg 50%
    06:00 +28°C° 0 mm 5 mps 755 mmHg 49%
    07:00 +29°C° 0 mm 5 mps 755 mmHg 48%
    08:00 +30°C° 0 mm 6 mps 755 mmHg 46%
    09:00 +33°C° 0 mm 7 mps 755 mmHg 42%
    10:00 +34°C° 0 mm 7 mps 756 mmHg 38%
    11:00 +35°C° 0 mm 8 mps 756 mmHg 33%
    12:00 +37°C° 0 mm 8 mps 756 mmHg 32%
    13:00 +37°C° 0 mm 8 mps 755 mmHg 31%
    14:00 +37°C° 0 mm 8 mps 755 mmHg 30%
    15:00 +37°C° 0 mm 8 mps 755 mmHg 31%
    16:00 +35°C° 0 mm 8 mps 755 mmHg 32%
    17:00 +35°C° 0 mm 8 mps 755 mmHg 32%
    18:00 +33°C° 0 mm 7 mps 755 mmHg 36%
    19:00 +32°C° 0 mm 5 mps 755 mmHg 40%
    20:00 +30°C° 0 mm 4 mps 755 mmHg 43%
    21:00 +29°C° 0 mm 4 mps 755 mmHg 44%
    22:00 +29°C° 0 mm 5 mps 755 mmHg 44%
    23:00 +28°C° 0 mm 5 mps 755 mmHg 45%

    27 August, Tuesday

    Time Temperature Precipitation Wind Pressure Humidity
    00:00 +28°C° 0 mm 5 mps 755 mmHg 47%
    01:00 +28°C° 0 mm 5 mps 755 mmHg 50%
    02:00 +27°C° 0 mm 5 mps 755 mmHg 52%
    03:00 +27°C° 0 mm 5 mps 755 mmHg 55%
    04:00 +26°C° 0 mm 5 mps 755 mmHg 58%
    05:00 +26°C° 0 mm 5 mps 755 mmHg 61%
    06:00 +27°C° 0 mm 6 mps 755 mmHg 58%
    07:00 +28°C° 0 mm 6 mps 755 mmHg 55%
    08:00 +29°C° 0 mm 7 mps 755 mmHg 52%
    09:00 +32°C° 0 mm 8 mps 756 mmHg 47%
    10:00 +33°C° 0 mm 9 mps 756 mmHg 42%
    11:00 +34°C° 0 mm 9 mps 756 mmHg 37%
    12:00 +35°C° 0 mm 9 mps 756 mmHg 36%
    13:00 +35°C° 0 mm 9 mps 756 mmHg 35%
    14:00 +35°C° 0 mm 9 mps 755 mmHg 35%
    15:00 +35°C° 0 mm 9 mps 755 mmHg 35%
    16:00 +34°C° 0 mm 8 mps 755 mmHg 35%
    17:00 +34°C° 0 mm 8 mps 755 mmHg 36%
    18:00 +32°C° 0 mm 7 mps 755 mmHg 39%
    19:00 +30°C° 0 mm 5 mps 755 mmHg 43%
    20:00 +29°C° 0 mm 4 mps 755 mmHg 47%
    21:00 +28°C° 0 mm 4 mps 755 mmHg 48%
    22:00 +28°C° 0 mm 4 mps 755 mmHg 48%
    23:00 +27°C° 0 mm 4 mps 755 mmHg 49%
    Show more